Year,Month,Day,Hour,Minute,Value (Times are PST for temperature in C)
2009,03,24,00,00,3.10
2009,03,24,00,01,3.10
2009,03,24,00,02,3.00
2009,03,24,00,03,3.00
2009,03,24,00,04,3.00
2009,03,24,00,05,3.10
2009,03,24,00,06,3.00
2009,03,24,00,07,3.00
2009,03,24,00,08,3.00
2009,03,24,00,09,3.00
2009,03,24,00,10,3.00
2009,03,24,00,11,3.00
2009,03,24,00,12,3.00
2009,03,24,01,02,3.00
2009,03,24,01,03,3.00
2009,03,24,01,04,3.00
2009,03,24,01,05,3.00
2009,03,24,01,06,3.00
2009,03,24,01,07,3.00
2009,03,24,01,08,3.00
2009,03,24,01,09,3.00
2009,03,24,01,10,3.00
2009,03,24,01,11,3.00
2009,03,24,01,12,3.00
2009,03,24,01,13,3.00
2009,03,24,01,14,3.00
2009,03,24,01,15,3.10
2009,03,24,01,16,3.10
2009,03,24,01,17,3.10
2009,03,24,01,18,3.10
2009,03,24,01,19,3.10
2009,03,24,01,20,3.10
2009,03,24,01,21,3.10
2009,03,24,01,22,3.10
2009,03,24,01,23,3.10
2009,03,24,01,24,3.10
2009,03,24,01,25,3.10
2009,03,24,01,26,3.10
2009,03,24,01,27,3.10
2009,03,24,01,28,3.10
2009,03,24,01,29,3.10
2009,03,24,01,30,3.10
2009,03,24,01,31,3.10
2009,03,24,01,32,3.10
2009,03,24,01,33,3.10
2009,03,24,01,34,3.10
2009,03,24,01,35,3.10
2009,03,24,01,36,3.10
2009,03,24,01,37,3.10
2009,03,24,01,38,3.10
2009,03,24,01,39,3.10
2009,03,24,01,40,3.10
2009,03,24,01,41,3.10
2009,03,24,01,42,3.10
2009,03,24,01,43,3.10
2009,03,24,01,44,3.10
2009,03,24,01,45,3.10
2009,03,24,01,46,3.10
2009,03,24,01,47,3.10
2009,03,24,01,48,3.10
2009,03,24,01,49,3.10
2009,03,24,01,50,3.10
2009,03,24,01,51,3.10
2009,03,24,01,52,3.10
2009,03,24,01,53,3.10
2009,03,24,01,54,3.10
2009,03,24,01,55,3.10
2009,03,24,01,56,3.10
2009,03,24,01,57,3.10
2009,03,24,01,58,3.10
2009,03,24,01,59,3.10
2009,03,24,02,00,3.10
2009,03,24,02,01,3.10
2009,03,24,02,02,3.10
2009,03,24,02,03,3.10
2009,03,24,02,04,3.10
2009,03,24,02,05,3.10
2009,03,24,02,06,3.10
2009,03,24,02,07,3.10
2009,03,24,02,08,3.10
2009,03,24,02,09,3.10
2009,03,24,02,10,3.10
2009,03,24,02,11,3.10
2009,03,24,02,12,3.10
2009,03,24,02,13,3.10
2009,03,24,02,14,3.10
2009,03,24,02,15,3.10
2009,03,24,02,16,3.10
2009,03,24,02,17,3.10
2009,03,24,02,18,3.10
2009,03,24,02,19,3.10
2009,03,24,02,20,3.10
2009,03,24,02,21,3.10
2009,03,24,02,22,3.10
2009,03,24,02,23,3.10
2009,03,24,02,24,3.10
2009,03,24,02,25,3.10
2009,03,24,02,26,3.10
2009,03,24,02,27,3.10
2009,03,24,02,28,3.10
2009,03,24,02,29,3.10
2009,03,24,02,30,3.10
2009,03,24,02,31,3.10
2009,03,24,02,32,3.10
2009,03,24,02,33,3.10
2009,03,24,02,34,3.10
2009,03,24,02,35,3.10
2009,03,24,02,36,3.10
2009,03,24,02,37,3.10
2009,03,24,02,38,3.10
2009,03,24,02,39,3.10
2009,03,24,02,40,3.10
2009,03,24,02,41,3.10
2009,03,24,02,42,3.10
2009,03,24,02,43,3.10
2009,03,24,02,44,3.10
2009,03,24,02,45,3.10
2009,03,24,02,46,3.10
2009,03,24,02,47,3.10
2009,03,24,02,48,3.10
2009,03,24,02,49,3.10
2009,03,24,02,50,3.10
2009,03,24,02,51,3.10
2009,03,24,02,52,3.10
2009,03,24,02,53,3.10
2009,03,24,02,54,3.10
2009,03,24,02,55,3.10
2009,03,24,02,56,3.10
2009,03,24,02,57,3.10
2009,03,24,02,58,3.10
2009,03,24,02,59,3.10
2009,03,24,03,00,3.10
2009,03,24,03,01,3.10
2009,03,24,03,02,3.10
2009,03,24,03,03,3.10
2009,03,24,03,04,3.10
2009,03,24,03,05,3.10
2009,03,24,03,06,3.10
2009,03,24,03,07,3.10
2009,03,24,03,08,3.10
2009,03,24,03,09,3.10
2009,03,24,03,10,3.10
2009,03,24,03,11,3.10
2009,03,24,03,12,3.10
2009,03,24,03,13,3.10
2009,03,24,03,14,3.10
2009,03,24,03,15,3.10
2009,03,24,03,16,3.10
2009,03,24,03,17,3.10
2009,03,24,03,18,3.20
2009,03,24,03,19,3.20
2009,03,24,03,20,3.20
2009,03,24,03,21,3.20
2009,03,24,03,22,3.20
2009,03,24,03,23,3.20
2009,03,24,03,24,3.20
2009,03,24,03,25,3.20
2009,03,24,03,26,3.20
2009,03,24,03,27,3.20
2009,03,24,03,28,3.20
2009,03,24,03,29,3.20
2009,03,24,03,30,3.20
2009,03,24,03,31,3.20
2009,03,24,03,32,3.20
2009,03,24,03,33,3.20
2009,03,24,03,34,3.20
2009,03,24,03,35,3.20
2009,03,24,03,36,3.20
2009,03,24,03,37,3.20
2009,03,24,03,38,3.20
2009,03,24,03,39,3.20
2009,03,24,03,40,3.20
2009,03,24,03,41,3.20
2009,03,24,03,42,3.20
2009,03,24,03,43,3.20
2009,03,24,03,44,3.20
2009,03,24,03,45,3.20
2009,03,24,03,46,3.20
2009,03,24,03,47,3.20
2009,03,24,03,48,3.20
2009,03,24,03,49,3.20
2009,03,24,03,50,3.20
2009,03,24,03,51,3.20
2009,03,24,03,52,3.20
2009,03,24,03,53,3.20
2009,03,24,03,54,3.20
2009,03,24,03,55,3.30
2009,03,24,03,56,3.30
2009,03,24,03,57,3.30
2009,03,24,03,58,3.30
2009,03,24,03,59,3.30
2009,03,24,04,00,3.30
2009,03,24,04,01,3.30
2009,03,24,04,02,3.30
2009,03,24,04,03,3.30
2009,03,24,04,04,3.30
2009,03,24,04,05,3.30
2009,03,24,04,06,3.30
2009,03,24,04,07,3.30
2009,03,24,04,08,3.30
2009,03,24,04,09,3.30
2009,03,24,04,10,3.30
2009,03,24,04,11,3.30
2009,03,24,04,12,3.30
2009,03,24,04,13,3.30
2009,03,24,04,14,3.30
2009,03,24,04,15,3.30
2009,03,24,04,16,3.30
2009,03,24,04,17,3.30
2009,03,24,04,18,3.30
2009,03,24,04,19,3.30
2009,03,24,04,20,3.30
2009,03,24,04,21,3.30
2009,03,24,04,22,3.30
2009,03,24,04,23,3.30
2009,03,24,04,24,3.30
2009,03,24,04,25,3.30
2009,03,24,04,26,3.30
2009,03,24,04,27,3.30
2009,03,24,04,28,3.30
2009,03,24,04,29,3.30
2009,03,24,04,30,3.30
2009,03,24,04,31,3.30
2009,03,24,04,32,3.30
2009,03,24,04,33,3.30
2009,03,24,04,34,3.30
2009,03,24,04,35,3.30
2009,03,24,04,36,3.30
2009,03,24,04,37,3.30
2009,03,24,04,38,3.30
2009,03,24,04,39,3.30
2009,03,24,04,40,3.40
2009,03,24,04,41,3.40
2009,03,24,04,42,3.40
2009,03,24,04,43,3.40
2009,03,24,04,44,3.40
2009,03,24,04,45,3.40
2009,03,24,04,46,3.40
2009,03,24,04,47,3.40
2009,03,24,04,48,3.40
2009,03,24,04,49,3.40
2009,03,24,04,50,3.40
2009,03,24,04,51,3.40
2009,03,24,04,52,3.40
2009,03,24,04,53,3.40
2009,03,24,04,54,3.40
2009,03,24,04,55,3.40
2009,03,24,04,56,3.40
2009,03,24,04,57,3.40
2009,03,24,04,58,3.40
2009,03,24,04,59,3.40
2009,03,24,05,00,3.40
2009,03,24,05,01,3.40
2009,03,24,05,02,3.40
2009,03,24,05,03,3.40
2009,03,24,05,04,3.40
2009,03,24,05,05,3.50
2009,03,24,05,06,3.50
2009,03,24,05,07,3.50
2009,03,24,05,08,3.60
2009,03,24,05,09,3.60
2009,03,24,05,10,3.60
2009,03,24,05,11,3.60
2009,03,24,05,12,3.70
2009,03,24,05,13,3.70
2009,03,24,05,14,3.70
2009,03,24,05,15,3.70
2009,03,24,05,16,3.70
2009,03,24,05,17,3.70
2009,03,24,05,18,3.70
2009,03,24,05,19,3.70
2009,03,24,05,20,3.80
2009,03,24,05,21,3.80
2009,03,24,05,22,3.80
2009,03,24,05,23,3.80
2009,03,24,05,24,3.80
2009,03,24,05,25,3.80
2009,03,24,05,26,3.80
2009,03,24,05,27,3.80
2009,03,24,05,28,3.90
2009,03,24,05,29,3.90
2009,03,24,05,30,4.00
2009,03,24,05,31,4.00
2009,03,24,05,32,4.10
2009,03,24,05,33,4.10
2009,03,24,05,34,4.10
2009,03,24,05,35,4.10
2009,03,24,05,36,4.10
2009,03,24,05,37,4.10
2009,03,24,05,38,4.10
2009,03,24,05,39,4.20
2009,03,24,05,40,4.20
2009,03,24,05,41,4.20
2009,03,24,05,42,4.20
2009,03,24,05,43,4.30
2009,03,24,05,44,4.30
2009,03,24,05,45,4.40
2009,03,24,05,46,4.50
2009,03,24,05,47,4.50
2009,03,24,05,48,4.60
2009,03,24,05,49,4.70
2009,03,24,05,50,4.70
2009,03,24,05,51,4.80
2009,03,24,05,52,4.90
2009,03,24,05,53,4.90
2009,03,24,05,54,5.10
2009,03,24,05,55,5.10
2009,03,24,05,56,5.20
2009,03,24,05,57,5.30
2009,03,24,05,58,5.30
2009,03,24,05,59,5.30
2009,03,24,06,00,5.40
2009,03,24,06,01,5.40
2009,03,24,06,02,5.40
2009,03,24,06,03,5.40
2009,03,24,06,04,5.40
2009,03,24,06,05,5.40
2009,03,24,06,06,5.40
2009,03,24,06,07,5.40
2009,03,24,06,08,5.40
2009,03,24,06,09,5.40
2009,03,24,06,10,5.40
2009,03,24,06,11,5.40
2009,03,24,06,12,5.40
2009,03,24,06,13,5.40
2009,03,24,06,14,5.40
2009,03,24,06,15,5.40
2009,03,24,06,16,5.40
2009,03,24,06,17,5.40
2009,03,24,06,18,5.40
2009,03,24,06,19,5.50
2009,03,24,06,20,5.50
2009,03,24,06,21,5.50
2009,03,24,06,22,5.50
2009,03,24,06,23,5.50
2009,03,24,06,24,5.50
2009,03,24,06,25,5.50
2009,03,24,06,26,5.50
2009,03,24,06,27,5.50
2009,03,24,06,28,5.50
2009,03,24,06,29,5.50
2009,03,24,06,30,5.50
2009,03,24,06,31,5.50
2009,03,24,06,32,5.50
2009,03,24,06,33,5.50
2009,03,24,06,34,5.50
2009,03,24,06,35,5.50
2009,03,24,06,36,5.50
2009,03,24,06,37,5.50
2009,03,24,06,38,5.50
2009,03,24,06,39,5.50
2009,03,24,06,40,5.50
2009,03,24,06,41,5.50
2009,03,24,06,42,5.50
2009,03,24,06,43,5.60
2009,03,24,06,44,5.60
2009,03,24,06,45,5.60
2009,03,24,06,46,5.50
2009,03,24,06,47,5.60
2009,03,24,06,48,5.60
2009,03,24,06,49,5.60
2009,03,24,06,50,5.60
2009,03,24,06,51,5.60
2009,03,24,06,52,5.60
2009,03,24,06,53,5.60
2009,03,24,06,54,5.60
2009,03,24,06,55,5.60
2009,03,24,06,56,5.60
2009,03,24,06,57,5.60
2009,03,24,06,58,5.70
2009,03,24,06,59,5.70
2009,03,24,07,00,5.70
2009,03,24,07,01,5.70
2009,03,24,07,02,5.70
2009,03,24,07,03,5.70
2009,03,24,07,04,5.70
2009,03,24,07,05,5.70
2009,03,24,07,06,5.70
2009,03,24,07,07,5.70
2009,03,24,07,08,5.70
2009,03,24,07,09,5.70
2009,03,24,07,10,5.70
2009,03,24,07,11,5.70
2009,03,24,07,12,5.70
2009,03,24,07,13,5.80
2009,03,24,07,14,5.80
2009,03,24,07,15,5.80
2009,03,24,07,16,5.90
2009,03,24,07,17,5.90
2009,03,24,07,18,5.90
2009,03,24,07,19,5.90
2009,03,24,07,20,5.90
2009,03,24,07,21,5.90
2009,03,24,07,22,5.90
2009,03,24,07,23,5.90
2009,03,24,07,24,5.90
2009,03,24,07,25,5.90
2009,03,24,07,26,6.00
2009,03,24,07,27,6.00
2009,03,24,07,28,6.00
2009,03,24,07,29,6.00
2009,03,24,07,30,6.00
2009,03,24,07,31,6.00
2009,03,24,07,32,6.00
2009,03,24,07,33,6.10
2009,03,24,07,34,6.00
2009,03,24,07,35,6.00
2009,03,24,07,36,6.00
2009,03,24,07,37,6.00
2009,03,24,07,38,6.00
2009,03,24,07,39,6.00
2009,03,24,07,40,6.10
2009,03,24,07,41,6.10
2009,03,24,07,42,6.10
2009,03,24,07,43,6.10
2009,03,24,07,44,6.10
2009,03,24,07,45,6.10
2009,03,24,07,46,6.10
2009,03,24,07,47,6.10
2009,03,24,07,48,6.10
2009,03,24,07,49,6.10
2009,03,24,07,50,6.10
2009,03,24,07,51,6.10
2009,03,24,07,52,6.10
2009,03,24,07,53,6.10
2009,03,24,07,54,6.10
2009,03,24,07,55,6.10
2009,03,24,07,56,6.10
2009,03,24,07,57,6.10
2009,03,24,07,58,6.00
2009,03,24,07,59,6.00
2009,03,24,08,00,6.10
2009,03,24,08,01,6.10
2009,03,24,08,02,6.10
2009,03,24,08,03,6.10
2009,03,24,08,04,6.10
2009,03,24,08,05,6.20
2009,03,24,08,06,6.20
2009,03,24,08,07,6.20
2009,03,24,08,08,6.20
2009,03,24,08,09,6.20
2009,03,24,08,10,6.20
2009,03,24,08,11,6.20
2009,03,24,08,12,6.30
2009,03,24,08,13,6.30
2009,03,24,08,14,6.30
2009,03,24,08,15,6.30
2009,03,24,08,16,6.30
2009,03,24,08,17,6.30
2009,03,24,08,18,6.30
2009,03,24,08,19,6.30
2009,03,24,08,20,6.30
2009,03,24,08,21,6.30
2009,03,24,08,22,6.30
2009,03,24,08,23,6.30
2009,03,24,08,24,6.30
2009,03,24,08,25,6.30
2009,03,24,08,26,6.30
2009,03,24,08,27,6.40
2009,03,24,08,28,6.40
2009,03,24,08,29,6.40
2009,03,24,08,30,6.40
2009,03,24,08,31,6.40
2009,03,24,08,32,6.40
2009,03,24,08,33,6.40
2009,03,24,08,34,6.40
2009,03,24,08,35,6.40
2009,03,24,08,36,6.40
2009,03,24,08,37,6.40
2009,03,24,08,38,6.40
2009,03,24,08,39,6.40
2009,03,24,08,40,6.40
2009,03,24,08,41,6.40
2009,03,24,08,42,6.40
2009,03,24,08,43,6.40
2009,03,24,08,44,6.40
2009,03,24,08,45,6.50
2009,03,24,08,46,6.50
2009,03,24,08,47,6.50
2009,03,24,08,48,6.50
2009,03,24,08,49,6.50
2009,03,24,08,50,6.50
2009,03,24,08,51,6.50
2009,03,24,08,52,6.50
2009,03,24,08,53,6.50
2009,03,24,08,54,6.50
2009,03,24,08,55,6.50
2009,03,24,08,56,6.50
2009,03,24,08,57,6.50
2009,03,24,08,58,6.50
2009,03,24,08,59,6.50
2009,03,24,09,00,6.50
2009,03,24,09,01,6.50
2009,03,24,09,02,6.50
2009,03,24,09,03,6.50
2009,03,24,09,04,6.60
2009,03,24,09,05,6.60
2009,03,24,09,06,6.60
2009,03,24,09,07,6.60
2009,03,24,09,08,6.60
2009,03,24,09,09,6.60
2009,03,24,09,10,6.60
2009,03,24,09,11,6.60
2009,03,24,09,12,6.60
2009,03,24,09,13,6.60
2009,03,24,09,14,6.60
2009,03,24,09,15,6.60
2009,03,24,09,16,6.60
2009,03,24,09,17,6.60
2009,03,24,09,18,6.60
2009,03,24,09,19,6.60
2009,03,24,09,20,6.60
2009,03,24,09,21,6.60
2009,03,24,09,22,6.60
2009,03,24,09,23,6.60
2009,03,24,09,24,6.60
2009,03,24,09,25,6.70
2009,03,24,09,26,6.70
2009,03,24,09,27,6.70
2009,03,24,09,28,6.70
2009,03,24,09,29,6.70
2009,03,24,09,30,6.70
2009,03,24,09,31,6.70
2009,03,24,09,32,6.70
2009,03,24,09,33,6.70
2009,03,24,09,34,6.70
2009,03,24,09,35,6.70
2009,03,24,09,36,6.70
2009,03,24,09,37,6.70
2009,03,24,09,38,6.70
2009,03,24,09,39,6.70
2009,03,24,09,40,6.70
2009,03,24,09,41,6.70
2009,03,24,09,42,6.70
2009,03,24,09,43,6.70
2009,03,24,09,44,6.70
2009,03,24,09,45,6.70
2009,03,24,09,46,6.70
2009,03,24,09,47,6.70
2009,03,24,09,48,6.70
2009,03,24,09,49,6.70
2009,03,24,09,50,6.70
2009,03,24,09,51,6.70
2009,03,24,09,52,6.70
2009,03,24,09,53,6.70
2009,03,24,09,54,6.80
2009,03,24,09,55,6.80
2009,03,24,09,56,6.80
2009,03,24,09,57,6.80
2009,03,24,09,58,6.80
2009,03,24,09,59,6.80
2009,03,24,10,00,6.80
2009,03,24,10,01,6.80
2009,03,24,10,02,6.80
2009,03,24,10,03,6.80
2009,03,24,10,04,6.80
2009,03,24,10,05,6.80
2009,03,24,10,06,6.80
2009,03,24,10,07,6.80
2009,03,24,10,08,6.80
2009,03,24,10,09,6.80
2009,03,24,10,10,6.80
2009,03,24,10,11,6.80
2009,03,24,10,12,6.80
2009,03,24,10,13,6.80
2009,03,24,10,14,6.80
2009,03,24,10,15,6.70
2009,03,24,10,16,6.70
2009,03,24,10,17,6.70
2009,03,24,10,18,6.70
2009,03,24,10,19,6.70
2009,03,24,10,20,6.70
2009,03,24,10,21,6.70
2009,03,24,10,22,6.80
2009,03,24,10,23,6.80
2009,03,24,10,24,6.80
2009,03,24,10,25,6.80
2009,03,24,10,26,6.80
2009,03,24,10,27,6.80
2009,03,24,10,28,6.80
2009,03,24,10,29,6.80
2009,03,24,10,30,6.80
2009,03,24,10,31,6.80
2009,03,24,10,32,6.80
2009,03,24,10,33,6.80
2009,03,24,10,34,6.80
2009,03,24,10,35,6.80
2009,03,24,10,36,6.80
2009,03,24,10,37,6.80
2009,03,24,10,38,6.80
2009,03,24,10,39,6.80
2009,03,24,10,40,6.80
2009,03,24,10,41,6.80
2009,03,24,10,42,6.80
2009,03,24,10,43,6.90
2009,03,24,10,44,6.80
2009,03,24,10,45,6.80
2009,03,24,10,46,6.80
2009,03,24,10,47,6.80
2009,03,24,10,48,6.80
2009,03,24,10,49,6.80
2009,03,24,10,50,6.80
2009,03,24,10,51,6.80
2009,03,24,10,52,6.90
2009,03,24,10,53,6.90
2009,03,24,10,54,6.90
2009,03,24,10,55,6.90
2009,03,24,10,56,6.90
2009,03,24,10,57,6.90
2009,03,24,10,58,6.90
2009,03,24,10,59,6.90
2009,03,24,11,00,7.00
2009,03,24,11,01,7.00
2009,03,24,11,02,7.00
2009,03,24,11,03,7.00
2009,03,24,11,04,7.00
2009,03,24,11,05,7.00
2009,03,24,11,06,7.00
2009,03,24,11,07,7.00
2009,03,24,11,08,7.10
2009,03,24,11,09,7.10
2009,03,24,11,10,7.10
2009,03,24,11,11,7.10
2009,03,24,11,12,7.10
2009,03,24,11,13,7.10
2009,03,24,11,14,7.10
2009,03,24,11,15,7.10
2009,03,24,11,16,7.10
2009,03,24,11,17,7.10
2009,03,24,11,18,7.10
2009,03,24,11,19,7.10
2009,03,24,11,20,7.10
2009,03,24,11,21,7.10
2009,03,24,11,22,7.10
2009,03,24,11,23,7.10
2009,03,24,11,24,7.00
2009,03,24,11,25,7.00
2009,03,24,11,26,7.00
2009,03,24,11,27,6.90
2009,03,24,11,28,6.90
2009,03,24,11,29,6.90
2009,03,24,11,30,6.90
2009,03,24,11,31,6.90
2009,03,24,11,32,6.90
2009,03,24,11,33,6.90
2009,03,24,11,34,6.80
2009,03,24,11,35,6.80
2009,03,24,11,36,6.80
2009,03,24,11,37,6.80
2009,03,24,11,38,6.80
2009,03,24,11,39,6.80
2009,03,24,11,40,6.80
2009,03,24,11,41,6.80
2009,03,24,11,42,6.80
2009,03,24,11,43,6.90
2009,03,24,11,44,6.90
2009,03,24,11,45,6.90
2009,03,24,11,46,6.90
2009,03,24,11,47,7.00
2009,03,24,11,48,7.10
2009,03,24,11,49,7.10
2009,03,24,11,50,7.20
2009,03,24,11,51,7.20
2009,03,24,11,52,7.30
2009,03,24,11,53,7.30
2009,03,24,11,54,7.30
2009,03,24,11,55,7.40
2009,03,24,11,56,7.40
2009,03,24,11,57,7.40
2009,03,24,11,58,7.40
2009,03,24,11,59,7.40
2009,03,24,12,00,7.50
2009,03,24,12,01,7.50
2009,03,24,12,02,7.40
2009,03,24,12,03,7.40
2009,03,24,12,04,7.40
2009,03,24,12,05,7.40
2009,03,24,12,06,7.40
2009,03,24,12,07,7.40
2009,03,24,12,08,7.40
2009,03,24,12,09,7.40
2009,03,24,12,10,7.40
2009,03,24,12,11,7.40
2009,03,24,12,12,7.40
2009,03,24,12,13,7.40
2009,03,24,12,14,7.30
2009,03,24,12,15,7.30
2009,03,24,12,16,7.30
2009,03,24,12,17,7.30
2009,03,24,12,18,7.30
2009,03,24,12,19,7.30
2009,03,24,12,20,7.30
2009,03,24,12,21,7.40
2009,03,24,12,22,7.40
2009,03,24,12,23,7.50
2009,03,24,12,24,7.60
2009,03,24,12,25,7.60
2009,03,24,12,26,7.60
2009,03,24,12,27,7.60
2009,03,24,12,28,7.50
2009,03,24,12,29,7.50
2009,03,24,12,30,7.50
2009,03,24,12,31,7.50
2009,03,24,12,32,7.50
2009,03,24,12,33,7.50
2009,03,24,12,34,7.50
2009,03,24,12,35,7.50
2009,03,24,12,36,7.50
2009,03,24,12,37,7.60
2009,03,24,12,38,7.60
2009,03,24,12,39,7.60
2009,03,24,12,40,7.60
2009,03,24,12,41,7.60
2009,03,24,12,42,7.60
2009,03,24,12,43,7.60
2009,03,24,12,44,7.60
2009,03,24,12,45,7.60
2009,03,24,12,46,7.60
2009,03,24,12,47,7.60
2009,03,24,12,48,7.60
2009,03,24,12,49,7.60
2009,03,24,12,50,7.70
2009,03,24,12,51,7.60
2009,03,24,12,52,7.60
2009,03,24,12,53,7.60
2009,03,24,12,54,7.60
2009,03,24,12,55,7.60
2009,03,24,12,56,7.60
2009,03,24,12,57,7.60
2009,03,24,12,58,7.70
2009,03,24,12,59,7.70
2009,03,24,13,00,7.70
2009,03,24,13,01,7.80
2009,03,24,13,02,7.80
2009,03,24,13,03,7.80
2009,03,24,13,04,7.80
2009,03,24,13,05,7.80
2009,03,24,13,06,7.80
2009,03,24,13,07,7.80
2009,03,24,13,08,7.80
2009,03,24,13,09,7.90
2009,03,24,13,10,7.90
2009,03,24,13,11,7.90
2009,03,24,13,12,7.90
2009,03,24,13,13,7.90
2009,03,24,13,14,7.90
2009,03,24,13,15,7.80
2009,03,24,13,16,7.80
2009,03,24,13,17,7.70
2009,03,24,13,18,7.60
2009,03,24,13,19,7.50
2009,03,24,13,20,7.40
2009,03,24,13,21,7.40
2009,03,24,13,22,7.40
2009,03,24,13,23,7.30
2009,03,24,13,24,7.30
2009,03,24,13,25,7.30
2009,03,24,13,26,7.30
2009,03,24,13,27,7.30
2009,03,24,13,28,7.30
2009,03,24,13,29,7.30
2009,03,24,13,30,7.40
2009,03,24,13,31,7.40
2009,03,24,13,32,7.40
2009,03,24,13,33,7.40
2009,03,24,13,34,7.40
2009,03,24,13,35,7.40
2009,03,24,13,36,7.40
2009,03,24,13,37,7.30
2009,03,24,13,38,7.20
2009,03,24,13,39,7.20
2009,03,24,13,40,7.10
2009,03,24,13,41,7.10
2009,03,24,13,42,7.00
2009,03,24,13,43,7.00
2009,03,24,13,44,6.90
2009,03,24,13,45,6.80
2009,03,24,13,46,6.80
2009,03,24,13,47,6.80
2009,03,24,13,48,6.80
2009,03,24,13,49,6.70
2009,03,24,13,50,6.70
2009,03,24,13,51,6.60
2009,03,24,13,52,6.60
2009,03,24,13,53,6.60
2009,03,24,13,54,6.60
2009,03,24,13,55,6.60
2009,03,24,13,56,6.60
2009,03,24,13,57,6.60
2009,03,24,13,58,6.60
2009,03,24,13,59,6.60
2009,03,24,14,00,6.60
2009,03,24,14,01,6.50
2009,03,24,14,02,6.50
2009,03,24,14,03,6.50
2009,03,24,14,04,6.40
2009,03,24,14,05,6.40
2009,03,24,14,06,6.40
2009,03,24,14,07,6.40
2009,03,24,14,08,6.40
2009,03,24,14,09,6.40
2009,03,24,14,10,6.40
2009,03,24,14,11,6.40
2009,03,24,14,12,6.40
2009,03,24,14,13,6.40
2009,03,24,14,14,6.40
2009,03,24,14,15,6.40
2009,03,24,14,16,6.40
2009,03,24,14,17,6.40
2009,03,24,14,18,6.40
2009,03,24,14,19,6.40
2009,03,24,14,20,6.40
2009,03,24,14,21,6.40
2009,03,24,14,22,6.40
2009,03,24,14,23,6.40
2009,03,24,14,24,6.40
2009,03,24,14,25,6.40
2009,03,24,14,26,6.40
2009,03,24,14,27,6.40
2009,03,24,14,28,6.40
2009,03,24,14,29,6.50
2009,03,24,14,30,6.50
2009,03,24,14,31,6.50
2009,03,24,14,32,6.60
2009,03,24,14,33,6.60
2009,03,24,14,34,6.60
2009,03,24,14,35,6.60
2009,03,24,14,36,6.60
2009,03,24,14,37,6.60
2009,03,24,14,38,6.60
2009,03,24,14,39,6.70
2009,03,24,14,40,6.70
2009,03,24,14,41,6.60
2009,03,24,14,42,6.60
2009,03,24,14,43,6.70
2009,03,24,14,44,6.70
2009,03,24,14,45,6.70
2009,03,24,14,46,6.70
2009,03,24,14,47,6.60
2009,03,24,14,48,6.60
2009,03,24,14,49,6.50
2009,03,24,14,50,6.50
2009,03,24,14,51,6.50
2009,03,24,14,52,6.50
2009,03,24,14,53,6.40
2009,03,24,14,54,6.50
2009,03,24,14,55,6.50
2009,03,24,14,56,6.50
2009,03,24,14,57,6.50
2009,03,24,14,58,6.50
2009,03,24,14,59,6.60
2009,03,24,15,00,6.60
2009,03,24,15,01,6.60
2009,03,24,15,02,6.60
2009,03,24,15,03,6.60
2009,03,24,15,04,6.60
2009,03,24,15,05,6.70
2009,03,24,15,06,6.70
2009,03,24,15,07,6.70
2009,03,24,15,08,6.70
2009,03,24,15,09,6.70
2009,03,24,15,10,6.70
2009,03,24,15,11,6.80
2009,03,24,15,12,6.80
2009,03,24,15,13,6.80
2009,03,24,15,14,6.80
2009,03,24,15,15,6.90
2009,03,24,15,16,6.90
2009,03,24,15,17,6.90
2009,03,24,15,18,6.90
2009,03,24,15,19,6.90
2009,03,24,15,20,7.00
2009,03,24,15,21,7.00
2009,03,24,15,22,7.00
2009,03,24,15,23,7.10
2009,03,24,15,24,7.10
2009,03,24,15,25,7.10
2009,03,24,15,26,7.20
2009,03,24,15,27,7.20
2009,03,24,15,28,7.10
2009,03,24,15,29,7.10
2009,03,24,15,30,7.10
2009,03,24,15,31,7.10
2009,03,24,15,32,7.10
2009,03,24,15,33,7.20
2009,03,24,15,34,7.20
2009,03,24,15,35,7.20
2009,03,24,15,36,7.10
2009,03,24,15,37,7.10
2009,03,24,15,38,7.10
2009,03,24,15,39,7.00
2009,03,24,15,40,7.00
2009,03,24,15,41,6.90
2009,03,24,15,42,6.90
2009,03,24,15,43,6.90
2009,03,24,15,44,6.90
2009,03,24,15,45,6.90
2009,03,24,15,46,6.90
2009,03,24,15,47,6.90
2009,03,24,15,48,6.90
2009,03,24,15,49,6.90
2009,03,24,15,50,6.90
2009,03,24,15,51,6.80
2009,03,24,15,52,6.80
2009,03,24,15,53,6.80
2009,03,24,15,54,6.80
2009,03,24,15,55,6.80
2009,03,24,15,56,6.80
2009,03,24,15,57,6.80
2009,03,24,15,58,6.80
2009,03,24,15,59,6.90
2009,03,24,16,00,6.90
2009,03,24,16,01,6.90
2009,03,24,16,02,6.90
2009,03,24,16,03,6.90
2009,03,24,16,04,6.90
2009,03,24,16,05,6.90
2009,03,24,16,06,6.90
2009,03,24,16,07,7.00
2009,03,24,16,08,7.00
2009,03,24,16,09,7.00
2009,03,24,16,10,7.10
2009,03,24,16,11,7.10
2009,03,24,16,12,7.10
2009,03,24,16,13,7.00
2009,03,24,16,14,7.00
2009,03,24,16,15,6.90
2009,03,24,16,16,6.90
2009,03,24,16,17,6.90
2009,03,24,16,18,6.90
2009,03,24,16,19,6.90
2009,03,24,16,20,6.90
2009,03,24,16,21,6.90
2009,03,24,16,22,6.90
2009,03,24,16,23,6.90
2009,03,24,16,24,6.90
2009,03,24,16,25,6.90
2009,03,24,16,26,6.90
2009,03,24,16,27,6.90
2009,03,24,16,28,6.90
2009,03,24,16,29,6.90
2009,03,24,16,30,7.00
2009,03,24,16,31,6.90
2009,03,24,16,32,6.90
2009,03,24,16,33,7.00
2009,03,24,16,34,7.00
2009,03,24,16,35,7.00
2009,03,24,16,36,7.00
2009,03,24,16,37,7.00
2009,03,24,16,38,7.00
2009,03,24,16,39,7.00
2009,03,24,16,40,7.10
2009,03,24,16,41,7.10
2009,03,24,16,42,7.10
2009,03,24,16,43,7.00
2009,03,24,16,44,7.00
2009,03,24,16,45,7.00
2009,03,24,16,46,7.00
2009,03,24,16,47,7.00
2009,03,24,16,48,7.00
2009,03,24,16,49,7.00
2009,03,24,16,50,7.00
2009,03,24,16,51,7.00
2009,03,24,16,52,6.90
2009,03,24,16,53,6.90
2009,03,24,16,54,6.90
2009,03,24,16,55,6.90
2009,03,24,16,56,6.90
2009,03,24,16,57,6.90
2009,03,24,16,58,6.90
2009,03,24,16,59,6.90
2009,03,24,17,00,6.90
2009,03,24,17,01,6.80
2009,03,24,17,02,6.80
2009,03,24,17,03,6.80
2009,03,24,17,04,6.80
2009,03,24,17,05,6.80
2009,03,24,17,06,6.80
2009,03,24,17,07,6.80
2009,03,24,17,08,6.80
2009,03,24,17,09,6.80
2009,03,24,17,10,6.80
2009,03,24,17,11,6.80
2009,03,24,17,12,6.80
2009,03,24,17,13,6.80
2009,03,24,17,14,6.80
2009,03,24,17,15,6.70
2009,03,24,17,16,6.70
2009,03,24,17,17,6.70
2009,03,24,17,18,6.70
2009,03,24,17,19,6.70
2009,03,24,17,20,6.70
2009,03,24,17,21,6.60
2009,03,24,17,22,6.60
2009,03,24,17,23,6.60
2009,03,24,17,24,6.60
2009,03,24,17,25,6.60
2009,03,24,17,26,6.50
2009,03,24,17,27,6.50
2009,03,24,17,28,6.40
2009,03,24,17,29,6.40
2009,03,24,17,30,6.40
2009,03,24,17,31,6.30
2009,03,24,17,32,6.30
2009,03,24,17,33,6.30
2009,03,24,17,34,6.20
2009,03,24,17,35,6.20
2009,03,24,17,36,6.20
2009,03,24,17,37,6.20
2009,03,24,17,38,6.10
2009,03,24,17,39,6.10
2009,03,24,17,40,6.00
2009,03,24,17,41,6.00
2009,03,24,17,42,5.90
2009,03,24,17,43,5.90
2009,03,24,17,44,5.90
2009,03,24,17,45,5.80
2009,03,24,17,46,5.80
2009,03,24,17,47,5.80
2009,03,24,17,48,5.80
2009,03,24,17,49,5.80
2009,03,24,17,50,5.70
2009,03,24,17,51,5.70
2009,03,24,17,52,5.70
2009,03,24,17,53,5.70
2009,03,24,17,54,5.70
2009,03,24,17,55,5.70
2009,03,24,17,56,5.60
2009,03,24,17,57,5.60
2009,03,24,17,58,5.60
2009,03,24,17,59,5.60
2009,03,24,18,00,5.60
2009,03,24,18,01,5.60
2009,03,24,18,02,5.60
2009,03,24,18,03,5.60
2009,03,24,18,04,5.60
2009,03,24,18,05,5.60
2009,03,24,18,06,5.60
2009,03,24,18,07,5.60
2009,03,24,18,08,5.60
2009,03,24,18,09,5.60
2009,03,24,18,10,5.60
2009,03,24,18,11,5.60
2009,03,24,18,12,5.60
2009,03,24,18,13,5.60
2009,03,24,18,14,5.60
2009,03,24,18,15,5.70
2009,03,24,18,16,5.70
2009,03,24,18,17,5.70
2009,03,24,18,18,5.60
2009,03,24,18,19,5.60
2009,03,24,18,20,5.60
2009,03,24,18,21,5.60
2009,03,24,18,22,5.60
2009,03,24,18,23,5.60
2009,03,24,18,24,5.60
2009,03,24,18,25,5.60
2009,03,24,18,26,5.60
2009,03,24,18,27,5.60
2009,03,24,18,28,5.60
2009,03,24,18,29,5.60
2009,03,24,18,30,5.60
2009,03,24,18,31,5.60
2009,03,24,18,32,5.60
2009,03,24,18,33,5.60
2009,03,24,18,34,5.60
2009,03,24,18,35,5.60
2009,03,24,18,36,5.60
2009,03,24,18,37,5.60
2009,03,24,18,38,5.60
2009,03,24,18,39,5.60
2009,03,24,18,40,5.60
2009,03,24,18,41,5.50
2009,03,24,18,42,5.50
2009,03,24,18,43,5.50
2009,03,24,18,44,5.50
2009,03,24,18,45,5.50
2009,03,24,18,46,5.40
2009,03,24,18,47,5.40
2009,03,24,18,48,5.40
2009,03,24,18,49,5.40
2009,03,24,18,50,5.40
2009,03,24,18,51,5.40
2009,03,24,18,52,5.40
2009,03,24,18,53,5.40
2009,03,24,18,54,5.40
2009,03,24,18,55,5.40